TimeEDT,TemperatureF,Dew PointF,Humidity,Sea Level PressureIn,VisibilityMPH,Wind Direction,Wind SpeedMPH,Gust SpeedMPH,PrecipitationIn,Events,Conditions,WindDirDegrees,DateUTC
12:13 AM,59.0,59.0,100,29.96,6.0,NE,1.2,-,N/A,,Clear,50,2013-05-09 04:13:00
12:18 AM,59.0,59.0,100,29.95,1.2,NE,1.2,-,N/A,,Clear,40,2013-05-09 04:18:00
12:23 AM,57.2,57.2,100,29.95,1.0,ENE,2.3,-,N/A,,Clear,60,2013-05-09 04:23:00
12:28 AM,57.2,57.2,100,29.95,1.8,ENE,1.2,-,N/A,,Partly Cloudy,60,2013-05-09 04:28:00
12:33 AM,57.2,57.2,100,29.95,3.0,NE,2.3,-,N/A,,Partly Cloudy,50,2013-05-09 04:33:00
12:38 AM,55.4,55.4,100,29.95,8.0,NE,2.3,-,N/A,,Clear,40,2013-05-09 04:38:00
12:53 AM,57.2,57.2,100,29.94,10.0,East,5.8,-,N/A,,Clear,100,2013-05-09 04:53:00
12:58 AM,57.2,57.2,100,29.94,10.0,ESE,4.6,-,N/A,,Clear,110,2013-05-09 04:58:00
1:58 AM,57.2,57.2,100,29.92,10.0,SSE,4.6,-,N/A,,Clear,150,2013-05-09 05:58:00
2:58 AM,57.4,57.4,100,29.91,10.0,SE,6.9,-,N/A,,Clear,140,2013-05-09 06:58:00
3:58 AM,56.8,56.8,100,29.91,10.0,SSE,2.3,-,N/A,,Clear,160,2013-05-09 07:58:00
4:58 AM,57.6,57.6,100,29.90,10.0,SSE,6.9,-,N/A,,Clear,150,2013-05-09 08:58:00
5:58 AM,55.8,55.8,100,29.90,10.0,SE,8.1,-,N/A,,Clear,140,2013-05-09 09:58:00
6:58 AM,57.4,57.2,99,29.91,10.0,SE,6.9,-,N/A,,Clear,140,2013-05-09 10:58:00
7:58 AM,59.2,57.2,93,29.92,10.0,SSE,9.2,-,N/A,,Clear,150,2013-05-09 11:58:00
8:58 AM,61.0,56.8,86,29.93,10.0,SSE,8.1,-,N/A,,Clear,150,2013-05-09 12:58:00
9:58 AM,62.1,56.1,81,29.92,10.0,East,4.6,-,N/A,,Clear,100,2013-05-09 13:58:00
10:53 AM,66.2,57.2,73,29.92,10.0,West,5.8,-,N/A,,Mostly Cloudy,280,2013-05-09 14:53:00
10:58 AM,66.4,57.0,72,29.92,10.0,Variable,3.5,-,N/A,,Mostly Cloudy,0,2013-05-09 14:58:00
11:58 AM,64.9,56.5,74,29.92,10.0,ENE,4.6,-,N/A,,Mostly Cloudy,70,2013-05-09 15:58:00
12:58 PM,67.1,55.0,65,29.91,10.0,NW,5.8,-,N/A,,Overcast,320,2013-05-09 16:58:00
1:58 PM,68.7,56.1,64,29.89,10.0,Variable,2.3,-,N/A,,Mostly Cloudy,0,2013-05-09 17:58:00
2:58 PM,67.8,55.2,64,29.88,10.0,WNW,8.1,-,N/A,,Mostly Cloudy,290,2013-05-09 18:58:00
3:39 PM,68.0,55.4,64,29.88,9.0,West,6.9,-,N/A,Rain,Light Rain,260,2013-05-09 19:39:00
3:56 PM,68.0,55.4,64,29.88,10.0,WNW,6.9,-,N/A,,Scattered Clouds,290,2013-05-09 19:56:00
3:58 PM,68.0,55.4,64,29.88,10.0,West,5.8,-,0.00,,Scattered Clouds,280,2013-05-09 19:58:00
4:58 PM,69.4,53.4,57,29.88,10.0,West,9.2,-,N/A,,Clear,270,2013-05-09 20:58:00
5:58 PM,68.5,52.3,56,29.88,10.0,West,9.2,-,N/A,,Overcast,270,2013-05-09 21:58:00
6:58 PM,67.6,53.6,61,29.88,10.0,West,6.9,-,N/A,,Clear,260,2013-05-09 22:58:00
7:58 PM,64.2,52.3,65,29.89,10.0,West,4.6,-,N/A,,Clear,260,2013-05-09 23:58:00
8:58 PM,59.0,54.1,84,29.91,10.0,WSW,4.6,-,N/A,,Partly Cloudy,240,2013-05-10 00:58:00
9:58 PM,58.1,55.0,90,29.93,10.0,South,4.6,-,N/A,,Overcast,190,2013-05-10 01:58:00
10:58 PM,57.4,55.2,92,29.93,10.0,SW,2.3,-,N/A,,Mostly Cloudy,230,2013-05-10 02:58:00
11:58 PM,56.8,55.9,97,29.94,10.0,WSW,2.3,-,N/A,,Overcast,250,2013-05-10 03:58:00